Location: Newark
(52.2090°N, 4.1550°W)
Time: 07:52:54
(UTC+00:00)

Transit 2A - All Passes

Search period start: 22 September 2019 00:00
Search period end: 02 October 2019 00:00
Orbit: 599 x 960 km, 66.7° (Epoch: 21 September)

Date Brightness Start Highest point End Pass type
(mag) Time Alt. Az. Time Alt. Az. Time Alt. Az.
22 Sep - 00:53:59 10° ESE 00:55:38 11° ESE 00:57:16 10° E visible
22 Sep - 02:32:21 10° SSW 02:37:58 57° ESE 02:43:02 10° NE visible
22 Sep - 04:16:14 10° WSW 04:21:23 38° NW 04:26:04 10° NNE visible
22 Sep - 06:02:32 10° NW 06:05:54 17° NNW 06:09:06 10° NNE daylight
22 Sep - 07:47:54 10° NNW 07:51:00 16° NNE 07:53:56 10° NE daylight
22 Sep - 09:31:09 10° NNW 09:35:34 37° NE 09:39:40 10° ESE daylight
22 Sep - 11:14:25 10° NW 11:18:48 43° WSW 11:22:56 10° S daylight
23 Sep - 01:58:32 10° S 02:03:54 42° ESE 02:08:48 10° NE visible
23 Sep - 03:41:44 10° WSW 03:47:07 47° NW 03:52:01 10° NNE visible
23 Sep - 05:27:46 10° WNW 05:31:26 19° NNW 05:34:55 10° NNE visible
23 Sep - 07:13:36 10° NNW 07:16:31 15° N 07:19:17 10° NE daylight
23 Sep - 08:57:04 10° NNW 09:01:14 29° NNE 09:05:09 10° E daylight
23 Sep - 10:40:12 10° NW 10:44:46 63° WSW 10:49:04 10° SSE daylight
24 Sep - 01:24:56 10° S 01:29:54 32° ESE 01:34:30 10° NE visible
24 Sep - 03:07:21 10° SW 03:12:54 60° NW 03:17:56 10° NE visible
24 Sep - 04:53:00 10° WNW 04:57:01 21° NNW 05:00:47 10° NNE visible
24 Sep - 06:39:12 10° NNW 06:42:01 15° N 06:44:42 10° NE daylight
24 Sep - 08:22:59 10° NNW 08:26:53 24° NNE 08:30:34 10° E daylight
24 Sep - 10:06:01 10° NW 10:10:41 88° WSW 10:15:03 10° SE daylight
24 Sep - 11:50:45 10° WNW 11:53:01 14° WSW 11:55:15 10° SW daylight
25 Sep - 00:51:33 10° SSE 00:55:56 23° ESE 01:00:03 10° ENE visible
25 Sep - 02:33:05 10° SW 02:38:44 78° NW 02:43:50 10° NE visible
25 Sep - 04:18:16 10° W 04:22:38 25° NNW 04:26:42 10° NNE visible
25 Sep - 06:04:40 10° NW 06:07:30 15° N 06:10:14 10° NNE daylight
25 Sep - 07:48:53 10° NNW 07:52:30 21° NNE 07:55:55 10° ENE daylight
25 Sep - 09:31:53 10° NW 09:36:33 68° NE 09:40:54 10° SE daylight
25 Sep - 11:15:53 10° WNW 11:19:10 20° WSW 11:22:20 10° SSW daylight
26 Sep - 00:18:29 10° SSE 00:22:01 17° ESE 00:25:22 10° ENE visible
26 Sep - 01:58:56 10° SSW 02:04:37 81° SE 02:09:43 10° NE visible
26 Sep - 03:43:35 10° W 03:48:17 29° NNW 03:52:37 10° NNE visible
26 Sep - 05:30:02 10° NW 05:33:01 15° N 05:35:51 10° NNE visible
26 Sep - 07:14:44 10° NNW 07:18:03 18° NNE 07:21:14 10° ENE daylight
26 Sep - 08:57:48 10° NNW 09:02:21 50° NE 09:06:37 10° ESE daylight
26 Sep - 10:41:23 10° NW 10:45:15 28° WSW 10:48:58 10° S daylight
26 Sep - 23:46:07 10° SE 23:48:09 12° ESE 23:50:08 10° E visible
27 Sep - 01:24:57 10° SSW 01:30:31 61° ESE 01:35:34 10° NE visible
27 Sep - 03:08:58 10° WSW 03:13:58 35° NW 03:18:33 10° NNE visible
27 Sep - 04:55:19 10° NW 04:58:31 16° NNW 05:01:35 10° NNE visible
27 Sep - 06:40:33 10° NNW 06:43:36 16° NNE 06:46:32 10° NE daylight
27 Sep - 08:23:43 10° NNW 08:28:06 38° NE 08:32:14 10° ESE daylight
27 Sep - 10:07:01 10° NW 10:11:17 40° WSW 10:15:21 10° S daylight
28 Sep - 00:51:05 10° S 00:56:28 45° ESE 01:01:20 10° NE visible
28 Sep - 02:34:27 10° WSW 02:39:43 44° NW 02:44:30 10° NNE visible
28 Sep - 04:20:33 10° WNW 04:24:04 18° NNW 04:27:23 10° NNE visible
28 Sep - 06:06:17 10° NNW 06:09:07 15° N 06:11:52 10° NE daylight
28 Sep - 07:49:38 10° NNW 07:53:49 30° NE 07:57:45 10° E daylight
28 Sep - 09:32:47 10° NW 09:37:16 58° WSW 09:41:32 10° SSE daylight
29 Sep - 00:17:26 10° S 00:22:27 33° ESE 00:27:03 10° NE visible
29 Sep - 02:00:03 10° SW 02:05:29 57° NW 02:10:26 10° NE visible
29 Sep - 03:45:46 10° WNW 03:49:39 20° NNW 03:53:16 10° NNE visible
29 Sep - 05:31:54 10° NNW 05:34:38 15° N 05:37:15 10° NE visible
29 Sep - 07:15:34 10° NNW 07:19:28 25° NNE 07:23:10 10° E daylight
29 Sep - 08:58:36 10° NW 09:03:12 82° SW 09:07:32 10° SSE daylight
29 Sep - 10:43:35 10° W 10:45:30 13° WSW 10:47:22 10° SW daylight
29 Sep - 23:44:00 10° SSE 23:48:28 25° ESE 23:52:38 10° ENE visible
30 Sep - 01:25:44 10° SW 01:31:19 74° NW 01:36:20 10° NE visible
30 Sep - 03:11:01 10° W 03:15:14 23° NNW 03:19:10 10° NNE visible
30 Sep - 04:57:24 10° NW 05:00:08 15° N 05:02:45 10° NNE visible
30 Sep - 06:41:28 10° NNW 06:45:05 21° NNE 06:48:31 10° ENE daylight
30 Sep - 08:24:28 10° NW 08:29:04 73° NE 08:33:25 10° SE daylight
30 Sep - 10:08:34 10° WNW 10:11:38 18° WSW 10:14:37 10° SSW daylight
30 Sep - 23:10:53 10° SSE 23:14:33 18° ESE 23:18:00 10° ENE visible
01 Oct - 00:51:34 10° SW 00:57:11 85° SE 01:02:14 10° NE visible
01 Oct - 02:36:19 10° W 02:40:53 28° NNW 02:45:06 10° NNE visible
01 Oct - 04:22:47 10° NW 04:25:38 15° N 04:28:21 10° NNE visible
01 Oct - 06:07:21 10° NNW 06:10:40 18° NNE 06:13:50 10° ENE daylight
01 Oct - 07:50:22 10° NNW 07:54:54 53° NE 07:59:10 10° ESE daylight
01 Oct - 09:34:00 10° WNW 09:37:44 26° WSW 09:41:20 10° S daylight
01 Oct - 22:38:20 10° SE 22:40:39 13° ESE 22:42:55 10° E night (unlit)
